When you browse on this site, cookies collect data to enhance your experience and personalize the content and advertising you see.
Visit our Privacy Policy to learn more. By continuing to use the site, you agree to this use of cookies and data.
  • In Norway
  • List of Countries
  • For 7 days
  • Water Temperature
  • Satellite Maps
  • Weather Map
  • Weather Widgets
  • user-avatar
    Login

    Hourly Weather Melbourne

    Today, 23 January, Wednesday

    Time Temperature Precipitation Wind Pressure Humidity
    00:00 +22°C° 0 mm 1 mps 758 mmHg 66%
    01:00 +21°C° 0 mm 2 mps 758 mmHg 68%
    02:00 +20°C° 0 mm 2 mps 758 mmHg 72%
    03:00 +19°C° 0 mm 2 mps 758 mmHg 76%
    04:00 +19°C° 0 mm 2 mps 758 mmHg 84%
    05:00 +19°C° 0.1 mm 2 mps 759 mmHg 84%
    06:00 +20°C° 0.1 mm 3 mps 759 mmHg 83%
    07:00 +20°C° 0.1 mm 3 mps 759 mmHg 83%
    08:00 +21°C° 0 mm 3 mps 759 mmHg 78%
    09:00 +22°C° 0 mm 3 mps 759 mmHg 73%
    10:00 +24°C° 0 mm 3 mps 760 mmHg 67%
    11:00 +25°C° 0 mm 3 mps 759 mmHg 60%
    12:00 +27°C° 0 mm 4 mps 759 mmHg 52%
    13:00 +29°C° 0 mm 4 mps 759 mmHg 44%
    14:00 +29°C° 0 mm 4 mps 759 mmHg 46%
    15:00 +28°C° 0 mm 5 mps 758 mmHg 47%
    16:00 +28°C° 0 mm 5 mps 758 mmHg 49%
    17:00 +27°C° 0 mm 5 mps 758 mmHg 54%
    18:00 +25°C° 0 mm 4 mps 759 mmHg 59%
    19:00 +23°C° 0 mm 4 mps 759 mmHg 65%
    20:00 +22°C° 0 mm 4 mps 759 mmHg 69%
    21:00 +21°C° 0 mm 3 mps 760 mmHg 74%
    22:00 +20°C° 0 mm 2 mps 760 mmHg 79%
    23:00 +20°C° 0 mm 2 mps 760 mmHg 82%

    Tomorrow, 24 January, Thursday

    Time Temperature Precipitation Wind Pressure Humidity
    00:00 +19°C° 0 mm 2 mps 759 mmHg 84%
    01:00 +20°C° 0 mm 1 mps 759 mmHg 87%
    02:00 +20°C° 0 mm 1 mps 759 mmHg 88%
    03:00 +20°C° 0 mm 1 mps 759 mmHg 89%
    04:00 +19°C° 0 mm 1 mps 759 mmHg 91%
    05:00 +20°C° 0 mm 1 mps 759 mmHg 86%
    06:00 +21°C° 0 mm 1 mps 759 mmHg 81%
    07:00 +20°C° 0 mm 0 mps 759 mmHg 77%
    08:00 +25°C° 0 mm 1 mps 759 mmHg 64%
    09:00 +28°C° 0 mm 1 mps 758 mmHg 51%
    10:00 +32°C° 0 mm 1 mps 758 mmHg 38%
    11:00 +35°C° 0 mm 1 mps 757 mmHg 32%
    12:00 +39°C° 0 mm 1 mps 757 mmHg 27%
    13:00 +41°C° 0 mm 1 mps 756 mmHg 21%
    14:00 +42°C° 0 mm 1 mps 756 mmHg 19%
    15:00 +43°C° 0 mm 2 mps 755 mmHg 17%
    16:00 +45°C° 0 mm 2 mps 754 mmHg 15%
    17:00 +42°C° 0 mm 2 mps 754 mmHg 18%
    18:00 +41°C° 0 mm 2 mps 754 mmHg 20%
    19:00 +39°C° 0 mm 2 mps 754 mmHg 22%
    20:00 +38°C° 0 mm 2 mps 754 mmHg 25%
    21:00 +36°C° 0 mm 3 mps 754 mmHg 29%
    22:00 +34°C° 0 mm 3 mps 754 mmHg 32%
    23:00 +34°C° 0 mm 3 mps 754 mmHg 31%

    Day after tomorrow, 25 January, Friday

    Time Temperature Precipitation Wind Pressure Humidity
    00:00 +34°C° 0 mm 4 mps 753 mmHg 31%
    01:00 +34°C° 0 mm 4 mps 753 mmHg 30%
    02:00 +34°C° 0 mm 5 mps 752 mmHg 30%
    03:00 +34°C° 0 mm 6 mps 752 mmHg 31%
    04:00 +34°C° 0 mm 7 mps 752 mmHg 31%
    05:00 +34°C° 0 mm 8 mps 752 mmHg 34%
    06:00 +34°C° 0 mm 8 mps 752 mmHg 37%
    07:00 +34°C° 0 mm 9 mps 753 mmHg 41%
    08:00 +37°C° 0 mm 9 mps 753 mmHg 37%
    09:00 +39°C° 0 mm 9 mps 753 mmHg 34%
    10:00 +41°C° 0 mm 8 mps 753 mmHg 30%
    11:00 +45°C° 0 mm 8 mps 752 mmHg 25%
    12:00 +47°C° 0 mm 7 mps 752 mmHg 21%
    13:00 +49°C° 0 mm 6 mps 751 mmHg 16%
    14:00 +44°C° 0 mm 6 mps 751 mmHg 27%
    15:00 +38°C° 0 mm 6 mps 751 mmHg 39%
    16:00 +30°C° 0 mm 6 mps 751 mmHg 50%
    17:00 +29°C° 0 mm 5 mps 752 mmHg 54%
    18:00 +28°C° 0 mm 5 mps 753 mmHg 58%
    19:00 +26°C° 0 mm 4 mps 753 mmHg 62%
    20:00 +25°C° 0.2 mm 4 mps 754 mmHg 64%
    21:00 +25°C° 0.2 mm 3 mps 755 mmHg 67%
    22:00 +24°C° 0.2 mm 3 mps 756 mmHg 69%
    23:00 +22°C° 0.1 mm 3 mps 756 mmHg 71%

    26 January, Saturday

    Time Temperature Precipitation Wind Pressure Humidity
    00:00 +23°C° 0.1 mm 2 mps 755 mmHg 72%
    01:00 +23°C° 0.1 mm 2 mps 755 mmHg 74%
    02:00 +21°C° 0 mm 2 mps 755 mmHg 75%
    03:00 +21°C° 0 mm 2 mps 755 mmHg 77%
    04:00 +21°C° 0 mm 2 mps 755 mmHg 78%
    05:00 +21°C° 0 mm 2 mps 755 mmHg 78%
    06:00 +21°C° 0 mm 2 mps 755 mmHg 79%
    07:00 +21°C° 0 mm 2 mps 755 mmHg 79%
    08:00 +21°C° 0 mm 2 mps 755 mmHg 74%
    09:00 +23°C° 0 mm 2 mps 755 mmHg 69%
    10:00 +24°C° 0 mm 2 mps 755 mmHg 64%
    11:00 +26°C° 0 mm 2 mps 754 mmHg 57%
    12:00 +28°C° 0 mm 2 mps 754 mmHg 49%
    13:00 +30°C° 0 mm 3 mps 753 mmHg 42%
    14:00 +30°C° 0 mm 3 mps 753 mmHg 42%
    15:00 +32°C° 0 mm 4 mps 752 mmHg 42%
    16:00 +32°C° 0 mm 5 mps 752 mmHg 42%
    17:00 +28°C° 0 mm 5 mps 752 mmHg 49%
    18:00 +26°C° 0 mm 5 mps 753 mmHg 56%
    19:00 +23°C° 0 mm 5 mps 753 mmHg 63%
    20:00 +22°C° 0 mm 4 mps 754 mmHg 66%
    21:00 +20°C° 0 mm 4 mps 754 mmHg 70%
    22:00 +19°C° 0 mm 3 mps 755 mmHg 73%
    23:00 +19°C° 0 mm 3 mps 755 mmHg 72%

    27 January, Sunday

    Time Temperature Precipitation Wind Pressure Humidity
    00:00 +20°C° 0 mm 2 mps 755 mmHg 71%
    01:00 +20°C° 0 mm 2 mps 755 mmHg 70%
    02:00 +19°C° 0 mm 2 mps 755 mmHg 71%
    03:00 +18°C° 0 mm 2 mps 756 mmHg 72%
    04:00 +18°C° 0 mm 2 mps 756 mmHg 73%
    05:00 +18°C° 0 mm 2 mps 756 mmHg 71%
    06:00 +18°C° 0 mm 2 mps 757 mmHg 70%
    07:00 +18°C° 0 mm 3 mps 757 mmHg 68%
    08:00 +20°C° 0 mm 3 mps 757 mmHg 61%
    09:00 +21°C° 0 mm 3 mps 757 mmHg 53%
    10:00 +24°C° 0 mm 3 mps 758 mmHg 46%
    11:00 +25°C° 0 mm 3 mps 757 mmHg 40%
    12:00 +27°C° 0 mm 3 mps 757 mmHg 35%
    13:00 +29°C° 0 mm 3 mps 757 mmHg 30%
    14:00 +29°C° 0 mm 4 mps 757 mmHg 31%
    15:00 +29°C° 0 mm 4 mps 757 mmHg 32%
    16:00 +29°C° 0 mm 5 mps 757 mmHg 33%
    17:00 +27°C° 0 mm 5 mps 757 mmHg 38%
    18:00 +26°C° 0 mm 5 mps 758 mmHg 44%
    19:00 +23°C° 0 mm 4 mps 758 mmHg 50%
    20:00 +22°C° 0 mm 4 mps 759 mmHg 55%
    21:00 +21°C° 0 mm 4 mps 759 mmHg 61%
    22:00 +20°C° 0 mm 3 mps 760 mmHg 66%
    23:00 +19°C° 0 mm 3 mps 760 mmHg 68%

    28 January, Monday

    Time Temperature Precipitation Wind Pressure Humidity
    00:00 +18°C° 0 mm 2 mps 760 mmHg 70%
    01:00 +18°C° 0 mm 2 mps 759 mmHg 72%
    02:00 +18°C° 0 mm 1 mps 759 mmHg 73%
    03:00 +18°C° 0 mm 1 mps 759 mmHg 75%
    04:00 +18°C° 0 mm 1 mps 759 mmHg 76%
    05:00 +16°C° 0 mm 0 mps 759 mmHg 73%
    06:00 +17°C° 0 mm 0 mps 759 mmHg 70%
    07:00 +18°C° 0 mm 0 mps 760 mmHg 68%
    08:00 +20°C° 0 mm 0 mps 760 mmHg 57%
    09:00 +25°C° 0 mm 1 mps 759 mmHg 46%
    10:00 +28°C° 0 mm 1 mps 759 mmHg 36%
    11:00 +30°C° 0 mm 1 mps 759 mmHg 31%
    12:00 +32°C° 0 mm 2 mps 758 mmHg 26%
    13:00 +35°C° 0 mm 2 mps 758 mmHg 21%
    14:00 +35°C° 0 mm 3 mps 758 mmHg 21%
    15:00 +35°C° 0 mm 4 mps 757 mmHg 22%
    16:00 +35°C° 0 mm 5 mps 757 mmHg 22%
    17:00 +33°C° 0 mm 5 mps 757 mmHg 30%
    18:00 +29°C° 0 mm 5 mps 758 mmHg 37%
    19:00 +27°C° 0 mm 5 mps 758 mmHg 44%
    20:00 +25°C° 0 mm 4 mps 759 mmHg 51%
    21:00 +23°C° 0 mm 4 mps 759 mmHg 57%
    22:00 +21°C° 0 mm 3 mps 759 mmHg 64%
    23:00 +20°C° 0 mm 3 mps 759 mmHg 68%
    Show more